Location: ??????
(56.0120°N, 39.1740°E)
Time: 06:02:10
(UTC+00:00)

SKYMED 3 - Pass Details

Date: 14 April 2026
Orbit: 535 x 558 km, 97.8° (Epoch: 10 May)

Event Time Altitude Azimuth Distance (km) Brightness Sun altitude
Rises 17:46:14 0° 17° (NNE) 2,704 8.1 -10.5°
Reaches altitude 10° 17:48:23 10° 20° (NNE) 1,806 7.2 -10.8°
Maximum altitude 17:52:16 65° 103° (ESE) 595 4.2 -11.2°
Drops below altitude 10° 17:56:06 10° 186° (S) 1,791 6.6 -11.7°
Sets 17:58:13 0° 189° (S) 2,678 7.5 -11.9°
